Epoch 2002 May 6.0 TT = JDT 2452400.5 T 2002 May 15.72781 TT Muraoka q 1.2581470 (2000.0) P Q n 0.15459268 Peri. 172.29420 -0.06423152 +0.92336185 a 3.4382973 Node 93.44893 -0.93462381 +0.07728954 e 0.6340785 Incl. 22.28454 -0.34978943 -0.37607077 P 6.38 From 39 observations 1970-1996, mean residual 0".83. Nongravitational parameters A1 = -0.01 +/- 0.02, A2 = +0.0029 +/- 0.0003.
H = 15.8 G = 0.15 [ ,-400] ( 〜2001年 4月10日) m1 = 11.7 + 5 logΔ + 12.5 log r(t - 50) [-400, 50] (2001年 4月10日〜2002年 7月 4日) m1 = 11.5 + 5 logΔ + 15.0 log r(t - 50) [ 50, 380] (2002年 7月 4日〜2003年 5月30日) H = 15.8 G = 0.15 [ 380, ] (2003年 5月30日〜 )